Temperature
18 18 18 18 18 18 18 18 18 18 18 18 18 18 18 18 18 18 18 18 18 18 18 18 18 17 17 17 17 17 17 16 16 16 16 16 16 16 16 16 16 16 16
19 18 18 18 18 18 18 18 18 18 18 18 18 18 18 18 18 18 18 18 18 18 18 17 17 17 17 17 17 17 16 16 16 16 16 16 16 16 16 16 16 16 16
19 19 19 19 19 18 18 18 18 19 18 18 18 18 18 18 18 18 18 18 18 17 17 17 17 17 17 17 17 16 16 16 16 16 16 16 16 16 15 15 16 15 15
19 19 19 19 19 18 18 18 18 18 18 18 18 18 18 18 18 18 18 18 17 17 17 17 17 17 17 17 17 16 16 16 16 16 16 16 16 16 15 15 15 15 15
19 19 19 19 19 18 18 18 18 18 18 18 18 18 18 18 18 18 18 18 17 17 17 17 17 17 17 17 17 16 16 16 16 16 16 16 15 15 15 15 15 15 15
19 19 19 19 19 18 18 18 18 18 18 18 18 18 18 18 18 18 18 17 17 17 17 17 17 17 16 16 16 16 16 16 16 16 16 15 15 15 15 15 15 15 15
19 19 19 19 19 19 19 18 18 18 18 18 18 18 18 18 18 18 17 17 17 17 17 17 16 16 16 16 16 16 16 16 16 16 16 15 15 15 15 15 15 15 15
19 19 19 19 19 19 19 18 18 18 18 18 18 18 17 17 17 17 17 17 17 17 17 16 16 16 16 16 16 16 16 16 16 16 16 15 15 15 15 15 14 14 14
19 19 19 19 19 19 19 19 18 18 18 18 18 18 17 17 17 17 17 17 17 17 17 16 16 16 16 16 16 16 16 16 16 16 15 15 15 15 15 14 14 14 14
19 19 19 19 19 19 19 19 18 18 18 18 18 18 18 18 17 17 17 17 16 16 16 16 16 16 16 16 16 16 15 15 15 15 15 15 15 15 15 14 14 14 14
19 19 19 19 19 19 19 19 18 18 18 18 18 18 17 17 17 17 16 16 16 16 16 16 16 16 16 16 16 15 15 15 15 15 15 15 15 15 15 14 14 14 14
19 19 19 19 19 19 19 19 18 18 18 18 18 17 17 17 17 17 17 16 16 16 16 16 16 16 16 16 15 15 15 15 15 15 15 15 15 15 14 14 14 14 13
20 19 19 19 19 19 19 19 18 18 18 18 18 17 17 17 17 17 17 16 16 16 16 16 16 16 15 15 15 15 15 15 15 15 15 15 14 14 14 14 14 14 13
20 20 19 19 19 19 19 19 19 18 18 18 18 17 17 17 17 17 17 16 16 16 16 16 15 15 15 15 15 15 15 15 15 14 14 14 14 14 14 14 14 13 13
20 20 19 19 19 19 19 19 18 18 18 18 18 17 17 17 17 17 17 17 16 16 16 16 15 15 15 15 15 15 14 14 14 14 14 14 14 14 14 14 14 13 13
20 20 19 19 19 19 19 18 18 18 18 18 18 17 17 17 17 17 17 17 16 16 16 16 16 15 15 15 15 14 14 14 14 14 14 14 14 13 13 13 13 13 13
20 20 20 19 19 19 19 18 18 18 18 18 18 17 17 17 17 17 17 16 16 16 16 16 15 15 15 15 15 14 14 14 14 14 13 13 13 13 13 13 13 13 13
19 19 19 19 19 19 19 18 18 18 18 18 17 17 17 17 17 17 16 16 16 16 16 16 15 15 15 14 14 14 14 14 14 13 13 13 13 13 13 13 13 13 13
19 19 19 19 19 19 19 18 18 18 18 17 17 17 17 17 17 17 16 16 16 16 16 15 15 15 15 14 14 14 14 13 13 13 13 13 13 13 13 13 12 12 12
19 19 19 19 19 19 18 18 18 18 17 17 17 17 17 17 17 16 16 16 16 16 15 15 15 15 14 14 14 14 13 13 13 13 13 13 13 12 12 12 12 12 12
20 19 19 19 19 18 18 18 17 17 17 17 17 17 17 17 16 16 16 16 16 16 15 15 15 15 14 14 14 14 13 13 13 13 13 13 12 12 12 12 12 12 12
19 19 19 19 18 18 18 17 17 17 17 17 17 17 16 16 16 16 16 16 16 15 15 15 15 15 15 14 14 14 13 13 13 13 13 13 12 12 12 12 12 12 12
19 19 19 18 18 18 18 17 17 17 17 16 16 16 16 16 16 15 15 15 15 15 15 15 15 14 14 14 14 13 13 13 13 13 13 13 13 12 12 12 12 12 12
19 19 18 18 18 18 17 17 17 16 16 16 16 16 16 16 15 15 15 15 15 15 15 14 14 14 14 14 14 14 13 13 13 12 12 12 13 13 12 12 12 12 12
19 19 18 18 18 17 17 17 17 16 16 16 16 16 15 15 15 15 15 15 15 15 14 14 14 14 14 14 13 13 13 13 12 13 12 12 12 12 12 12 12 12 12
19 18 18 17 17 17 17 17 16 16 16 16 16 15 15 15 15 15 15 14 15 15 14 14 14 14 14 13 13 13 13 13 13 12 13 12 12 12 12 12 12 12 12
Wind_Speed
4 4 4 4 5 5 4 3 3 2 2 2 3 5 5 7 8 9 9 12 14 14 14 14 13 12 12 12 12 13 12 12 13 12 12 11 11 11 10 10 10 9 9
5 4 4 3 3 4 5 4 3 3 2 2 3 4 5 7 8 9 9 10 12 12 12 12 12 12 12 12 12 12 12 13 13 13 12 12 12 12 11 11 11 11 10
6 5 3 3 3 4 4 3 2 2 2 2 2 3 4 5 7 8 8 8 9 11 12 13 12 12 12 12 13 13 13 13 13 13 13 13 12 13 12 12 11 11 11
7 5 3 2 3 3 3 2 2 2 2 2 2 2 2 3 5 6 7 8 8 8 10 11 11 11 11 12 13 13 13 13 13 14 14 13 13 13 13 12 12 12 12
7 5 3 2 3 2 2 2 2 3 2 2 1 2 2 2 3 5 5 6 7 7 7 9 10 10 10 11 11 12 13 13 14 14 14 14 13 12 12 12 11 11 11
6 5 3 2 3 2 2 2 2 2 2 2 2 2 1 1 2 2 3 4 6 7 7 7 7 7 8 9 9 10 10 11 12 12 13 14 14 13 12 12 11 11 11
6 5 3 2 2 3 3 3 3 2 1 2 3 2 2 1 1 1 1 2 2 4 6 6 6 5 5 7 8 8 8 9 10 11 12 13 13 12 12 12 11 11 10
5 5 4 3 3 3 2 2 3 2 1 2 3 2 1 2 2 0 1 1 2 2 3 5 6 6 5 4 5 6 6 7 8 9 10 10 11 11 11 11 11 11 11
5 5 5 4 3 3 3 3 3 4 2 1 2 3 3 2 1 2 1 1 1 2 2 3 5 6 6 5 4 5 6 6 6 7 8 8 9 10 11 11 11 11 11
4 5 5 5 4 3 3 3 3 3 4 2 1 1 2 4 2 1 2 1 1 1 2 2 3 4 5 4 4 3 4 4 4 5 6 6 7 8 10 11 11 11 11
4 5 5 5 4 4 4 3 3 3 3 3 2 1 1 1 2 2 1 1 1 1 1 2 2 3 4 4 4 3 4 3 3 4 4 6 6 7 7 10 11 11 11
2 3 4 5 4 4 4 4 3 4 3 3 2 2 3 2 2 2 2 2 1 2 1 1 2 2 4 4 4 4 4 3 3 3 3 4 5 6 6 7 9 10 10
3 4 4 4 4 4 4 4 4 3 3 3 3 2 3 3 3 3 3 2 1 1 0 0 1 2 4 4 4 5 5 4 3 3 3 3 4 5 5 5 6 7 8
4 4 5 5 5 4 4 4 3 3 3 3 3 3 2 2 3 3 4 3 1 0 0 2 1 2 4 5 5 5 5 5 4 4 3 3 3 4 5 6 6 5 6
4 4 4 4 4 4 4 4 3 3 3 3 2 2 2 2 2 3 3 5 5 3 2 2 1 1 4 5 5 5 5 5 5 4 4 4 4 5 6 6 6 6 6
4 4 5 4 4 4 4 4 3 3 3 3 3 3 3 3 2 2 3 3 4 4 3 2 2 2 3 4 5 5 5 5 5 6 5 5 5 6 6 6 7 7 7
5 5 5 5 5 4 4 4 4 4 4 3 3 3 3 3 2 2 2 3 3 3 3 2 1 2 3 3 3 4 4 4 4 5 6 6 7 8 8 8 8 8 8
5 5 5 5 5 5 4 5 5 4 4 4 4 3 3 3 2 2 2 3 3 3 4 3 2 2 2 3 3 3 3 3 3 4 6 7 8 8 9 9 8 9 9
5 4 5 5 5 5 5 5 5 4 4 5 4 4 4 3 3 2 3 3 3 3 3 4 3 2 1 2 2 2 2 1 3 4 5 6 8 8 9 9 9 9 9
4 4 5 5 5 4 4 4 4 3 3 3 4 4 4 5 5 4 4 4 4 4 3 4 3 3 2 2 3 2 2 1 2 3 4 5 7 8 9 9 10 10 10
5 4 4 3 4 4 4 4 4 4 4 3 3 3 4 5 6 5 4 4 5 4 4 4 4 3 3 3 4 3 3 2 2 2 2 3 4 5 7 9 11 11 12
3 3 3 3 3 3 4 5 5 4 3 4 4 3 3 3 4 4 5 6 8 7 7 5 4 5 6 5 4 5 4 3 3 3 3 4 4 4 6 9 11 13 13
2 2 2 3 3 4 5 5 5 4 4 3 3 3 3 2 2 2 2 3 6 8 10 8 7 7 7 7 7 6 5 5 5 4 4 4 3 5 6 9 14 15 15
3 3 3 3 3 4 5 5 5 4 3 3 3 4 3 2 2 3 3 3 3 5 7 7 7 8 7 7 8 8 7 5 2 2 5 4 3 4 5 8 13 17 17
3 3 3 3 3 4 5 6 5 3 2 3 3 3 4 3 4 4 3 4 4 4 5 7 8 7 8 9 8 5 4 4 3 3 4 4 3 3 3 4 10 16 18
4 3 3 3 4 4 5 6 6 3 3 2 2 2 4 4 5 5 5 5 5 5 4 3 3 4 5 7 10 8 8 6 3 4 5 5 3 3 2 3 5 9 12
Wind_Direction
157 161 173 179 186 183 182 184 185 188 184 172 163 150 147 160 168 167 174 182 186 190 192 195 196 197 197 199 201 202 203 202 201 201 203 202 201 204 204 202 201 200 200
156 156 156 161 173 177 185 185 178 170 171 159 154 150 150 156 165 170 176 183 189 190 192 197 201 204 205 205 206 206 207 210 206 206 207 207 207 207 208 209 206 203 202
152 149 146 152 168 168 170 166 148 126 133 134 140 152 149 151 162 173 179 180 190 198 199 200 204 211 212 212 213 210 212 215 213 209 209 209 209 210 211 213 210 208 207
152 148 149 161 160 146 145 141 124 101 100 106 121 149 150 154 166 171 177 182 189 197 204 205 206 211 216 218 217 216 216 214 213 211 212 212 213 212 212 215 216 214 210
158 151 159 172 153 140 147 154 132 136 136 121 126 138 155 167 176 177 178 183 190 195 200 210 210 213 217 220 221 222 221 220 216 215 215 212 210 210 211 212 213 207 201
164 155 161 175 157 141 147 146 140 134 144 144 116 88 120 183 169 175 186 178 187 195 199 202 211 219 220 225 227 227 227 224 217 216 215 214 211 208 208 206 205 201 198
165 156 154 155 148 148 166 159 138 122 113 117 89 53 25 21 144 188 188 170 181 186 189 196 196 200 215 226 232 230 230 227 221 219 219 216 212 206 203 201 198 196 197
174 168 158 160 155 148 145 145 135 131 159 139 128 115 34 355 351 261 192 177 175 167 185 200 194 192 203 213 229 232 234 232 225 215 212 210 208 203 197 197 196 200 200
173 163 159 157 157 156 162 167 155 148 164 194 157 149 158 212 273 321 293 200 168 169 187 185 188 194 201 209 224 235 233 233 228 214 208 206 204 201 196 196 201 202 202
171 163 163 161 159 155 157 170 155 149 146 168 225 201 179 162 162 261 321 303 215 177 186 187 171 175 186 190 203 213 207 212 215 210 209 202 197 197 200 203 204 205 204
180 173 165 157 157 161 163 161 152 150 155 162 177 180 147 128 148 161 226 283 318 299 192 193 167 162 172 176 184 189 188 196 207 203 207 202 199 201 203 208 210 207 204
190 181 166 162 167 167 170 172 165 162 171 170 172 168 165 165 181 170 193 222 238 273 264 190 165 160 170 175 184 187 183 176 182 187 191 198 199 199 203 208 208 204 201
196 202 183 172 173 178 176 170 163 172 175 174 184 191 187 194 176 165 160 185 212 267 300 288 228 171 166 164 173 175 172 166 159 164 175 185 184 190 190 185 187 189 191
200 199 185 181 181 178 176 167 165 179 169 178 192 191 197 213 183 171 168 161 163 289 269 236 268 192 165 160 163 162 165 161 155 153 153 151 162 177 174 170 168 173 176
198 186 178 175 179 176 175 168 175 183 172 184 199 203 213 231 201 187 176 167 164 184 228 228 215 210 172 162 165 160 164 168 164 163 166 165 164 166 161 160 163 159 154
189 175 173 174 179 180 180 177 184 195 185 201 205 204 221 226 205 191 184 181 169 169 194 216 207 188 166 159 164 162 166 165 168 167 167 169 168 160 156 155 155 150 145
188 186 187 182 183 188 185 182 196 196 194 211 214 204 222 215 206 210 189 180 173 159 178 218 196 168 153 154 148 151 157 158 170 173 171 165 160 162 159 156 157 153 147
197 193 190 188 194 193 188 188 199 196 197 209 217 207 229 222 208 215 196 193 190 176 168 186 192 172 171 172 160 160 161 167 175 180 171 166 163 164 162 160 159 158 155
197 196 193 194 200 196 194 197 197 196 203 211 208 204 222 214 220 219 209 202 192 178 160 165 178 175 156 151 137 163 166 161 187 188 180 178 177 175 173 170 169 167 165
184 196 205 199 197 195 194 199 193 187 204 220 216 207 211 211 211 209 202 198 183 163 158 157 162 168 167 155 149 172 195 213 214 197 189 187 186 187 186 184 182 180 177
187 191 191 197 201 197 200 196 195 193 200 216 232 225 219 213 209 204 197 190 175 167 163 165 174 171 178 170 190 188 196 209 231 205 188 198 184 188 198 198 196 192 189
186 181 186 193 203 217 209 197 193 196 196 201 223 240 234 219 215 208 201 188 178 176 178 178 185 193 203 197 184 184 181 181 235 215 183 216 189 208 209 207 207 201 198
177 188 199 193 203 216 190 180 184 178 190 205 212 219 229 226 201 201 211 200 196 193 184 183 191 204 202 197 185 191 195 195 215 199 169 216 205 218 220 213 211 208 205
180 196 207 206 206 210 189 180 179 175 188 209 211 203 203 215 215 200 210 219 223 215 204 197 203 211 208 195 191 196 197 200 217 193 166 199 209 219 223 217 214 211 210
180 199 198 200 209 225 200 186 176 176 197 221 219 207 202 203 225 202 197 217 236 246 226 210 209 214 208 194 178 165 171 178 214 226 190 187 201 208 221 230 223 215 213
193 198 196 201 204 214 204 184 173 175 200 229 246 235 213 206 217 204 199 208 224 238 223 222 226 229 218 204 191 189 189 192 200 224 202 185 188 168 227 239 217 213 213
Height
1537 1538 1539 1541 1542 1543 1545 1546 1547 1548 1549 1549 1550 1550 1551 1551 1552 1552 1552 1552 1552 1552 1552 1553 1553 1553 1553 1554 1554 1554 1555 1556 1557 1557 1558 1559 1560 1561 1561 1562 1562 1563 1564
1537 1539 1540 1541 1542 1544 1545 1546 1547 1548 1548 1549 1550 1550 1550 1551 1551 1551 1551 1551 1551 1551 1551 1551 1551 1551 1552 1552 1552 1553 1553 1554 1555 1556 1557 1558 1558 1559 1560 1560 1561 1561 1562
1538 1539 1540 1541 1543 1544 1545 1546 1547 1548 1548 1549 1549 1549 1550 1550 1550 1550 1550 1550 1550 1550 1550 1550 1550 1550 1550 1551 1551 1551 1551 1552 1553 1554 1555 1555 1556 1557 1558 1558 1559 1560 1560
1538 1539 1540 1541 1543 1544 1545 1546 1546 1547 1547 1548 1548 1548 1548 1549 1549 1549 1549 1549 1549 1549 1549 1549 1549 1549 1549 1549 1549 1549 1549 1550 1550 1551 1552 1553 1554 1555 1555 1556 1557 1557 1558
1539 1540 1541 1542 1542 1543 1544 1545 1546 1546 1546 1547 1547 1547 1547 1547 1547 1548 1548 1548 1548 1548 1547 1547 1547 1547 1547 1547 1547 1547 1547 1547 1547 1548 1549 1550 1551 1552 1553 1553 1554 1555 1556
1539 1540 1541 1541 1542 1543 1544 1544 1545 1545 1545 1546 1546 1546 1546 1546 1546 1546 1546 1546 1546 1546 1546 1545 1545 1545 1545 1545 1545 1545 1545 1545 1545 1545 1546 1547 1548 1549 1550 1550 1551 1552 1553
1539 1540 1540 1541 1541 1542 1543 1543 1544 1544 1544 1544 1545 1545 1545 1545 1545 1545 1545 1544 1544 1544 1544 1544 1543 1543 1543 1543 1543 1543 1542 1542 1542 1542 1543 1543 1544 1545 1546 1547 1548 1549 1550
1539 1539 1539 1540 1541 1541 1542 1542 1542 1543 1543 1543 1544 1544 1544 1545 1544 1544 1543 1543 1543 1543 1542 1542 1542 1541 1541 1541 1541 1541 1540 1540 1540 1540 1540 1540 1541 1542 1543 1544 1545 1546 1547
1538 1539 1539 1539 1540 1540 1540 1541 1541 1541 1541 1542 1542 1543 1543 1542 1543 1543 1542 1542 1542 1541 1541 1541 1540 1540 1539 1539 1539 1539 1539 1538 1538 1538 1538 1538 1538 1539 1540 1540 1542 1542 1543
1537 1538 1538 1538 1539 1539 1539 1539 1540 1540 1540 1540 1541 1541 1542 1541 1541 1541 1541 1541 1540 1540 1540 1539 1538 1538 1538 1537 1537 1537 1537 1536 1536 1536 1535 1535 1535 1536 1537 1538 1538 1539 1540
1536 1537 1537 1537 1537 1538 1538 1538 1538 1538 1538 1539 1539 1539 1540 1540 1539 1539 1539 1539 1539 1538 1538 1537 1537 1536 1536 1536 1536 1535 1535 1535 1534 1534 1533 1533 1533 1534 1534 1535 1536 1536 1538
1535 1536 1536 1536 1536 1536 1536 1537 1537 1537 1537 1537 1537 1537 1537 1537 1537 1537 1537 1537 1537 1537 1536 1536 1535 1535 1534 1533 1533 1533 1533 1533 1532 1532 1531 1531 1531 1531 1532 1532 1533 1534 1535
1534 1534 1534 1534 1535 1535 1535 1535 1535 1535 1535 1535 1535 1535 1535 1535 1536 1536 1535 1535 1535 1535 1535 1534 1534 1533 1532 1532 1532 1532 1532 1531 1531 1530 1530 1529 1529 1529 1530 1531 1532 1532 1533
1532 1533 1533 1533 1533 1534 1534 1534 1534 1534 1534 1534 1534 1534 1534 1534 1534 1534 1534 1533 1533 1533 1533 1532 1532 1531 1531 1530 1530 1530 1530 1530 1529 1529 1528 1528 1528 1528 1528 1529 1530 1531 1532
1531 1531 1531 1532 1532 1532 1532 1532 1532 1532 1532 1532 1532 1532 1532 1532 1532 1532 1531 1531 1531 1530 1530 1530 1530 1530 1530 1529 1529 1529 1529 1529 1528 1528 1527 1527 1527 1527 1528 1528 1529 1530 1530
1529 1529 1530 1530 1530 1530 1531 1531 1531 1530 1530 1530 1530 1530 1530 1530 1530 1530 1529 1529 1529 1529 1528 1527 1528 1528 1528 1528 1528 1528 1528 1528 1527 1527 1527 1527 1527 1527 1527 1528 1528 1529 1530
1528 1528 1528 1528 1528 1528 1528 1528 1528 1529 1529 1529 1528 1528 1528 1528 1527 1527 1527 1527 1527 1526 1526 1525 1526 1526 1526 1527 1527 1526 1526 1526 1526 1526 1526 1526 1526 1526 1526 1527 1527 1528 1529
1525 1526 1526 1526 1526 1526 1526 1526 1526 1526 1526 1526 1526 1526 1525 1525 1525 1525 1524 1524 1524 1524 1524 1523 1523 1524 1524 1525 1525 1525 1525 1525 1525 1525 1525 1525 1525 1525 1525 1526 1526 1527 1528
1523 1523 1524 1524 1524 1523 1523 1523 1523 1523 1523 1523 1523 1523 1523 1522 1522 1521 1521 1521 1521 1521 1521 1521 1521 1521 1522 1522 1523 1523 1523 1523 1523 1524 1524 1524 1524 1524 1524 1525 1525 1526 1526
1520 1520 1521 1521 1521 1521 1520 1520 1520 1520 1521 1521 1520 1520 1519 1519 1519 1518 1518 1518 1518 1517 1518 1518 1518 1518 1519 1519 1520 1521 1521 1521 1521 1522 1522 1522 1522 1523 1523 1523 1524 1524 1525
1517 1517 1518 1518 1518 1517 1517 1517 1517 1517 1517 1517 1517 1516 1516 1516 1515 1515 1515 1515 1515 1514 1514 1515 1515 1515 1515 1516 1517 1518 1518 1519 1519 1520 1520 1520 1521 1521 1521 1522 1522 1523 1523
1514 1514 1514 1514 1514 1514 1514 1513 1514 1514 1514 1513 1513 1513 1513 1513 1512 1512 1512 1512 1512 1511 1511 1511 1511 1512 1512 1513 1514 1515 1516 1516 1516 1517 1517 1518 1518 1518 1519 1519 1520 1521 1522
1511 1511 1511 1511 1510 1510 1510 1510 1510 1510 1510 1510 1510 1510 1510 1509 1509 1509 1508 1508 1508 1508 1509 1509 1508 1508 1509 1510 1511 1512 1512 1513 1513 1514 1515 1515 1515 1516 1517 1517 1518 1519 1519
1506 1507 1507 1507 1507 1506 1506 1506 1507 1507 1506 1506 1506 1506 1507 1506 1506 1506 1506 1505 1505 1505 1505 1505 1505 1506 1506 1507 1507 1508 1509 1510 1511 1511 1512 1512 1512 1512 1513 1514 1515 1516 1516
1502 1502 1503 1503 1503 1503 1503 1503 1503 1503 1503 1503 1503 1503 1503 1503 1503 1503 1502 1502 1502 1502 1502 1502 1502 1502 1503 1503 1503 1504 1505 1505 1506 1506 1508 1508 1508 1509 1510 1510 1511 1512 1513
1499 1499 1500 1500 1500 1500 1500 1499 1500 1499 1499 1500 1500 1500 1500 1499 1499 1499 1499 1498 1498 1498 1499 1498 1499 1499 1499 1499 1499 1500 1501 1501 1501 1502 1503 1504 1504 1505 1506 1506 1508 1508 1509